Weather History for Kirksville, MO

Change the Weather History Date:

Thursday, January 24, 2013

  Actual Average Record
Temperature  
Mean Temperature 14 °F 26 °F  
Max Temperature 22 °F 36 °F 70 °F (1950)
Min Temperature 6 °F 17 °F -10 °F (1963)
Degree Days  
Heating Degree Days 51 39  
Month to date heating degree days 921 936  
Since 1 July heating degree days 3163 3279  
Cooling Degree Days 0 0  
Month to date cooling degree days 0 0  
Year to date cooling degree days 0 0  
Moisture  
Dew Point 1 °F    
Average Humidity 60    
Maximum Humidity 76    
Minimum Humidity 43    
Precipitation  
Precipitation 0.00 in 0.05 in 1.04 in (1938)
Month to date precipitation 0.29 0.85  
Year to date precipitation 0.29 0.85  
Sea Level Pressure  
Sea Level Pressure 30.48 in    
Wind  
Wind Speed 11 mph (East)    
Max Wind Speed 18 mph    
Max Gust Speed 23 mph    
Visibility 10 miles    
Events      
T = Trace of Precipitation, MM = Missing Value Source: NWS Daily Summary

Daily Weather History Graph

Daily Weather History Graph

Search for Another Location

Airport:

Trip Planner

Search our weather history database for the weather conditions in past years. The results will help you decide how hot, cold, wet, or windy it might be!

Date:

Astronomy

Jan. 24, 2013 Rise Set
Actual Time 7:25 AM CST 5:19 PM CST
Civil Twilight 6:56 AM CST 5:49 PM CST
Nautical Twilight 6:23 AM CST 6:22 PM CST
Astronomical Twilight 5:51 AM CST 6:54 PM CST
Moon 3:22 PM CST (1/24) 5:23 AM CST (1/24)
Length of Visible Light 10h 53m
Length of Day
9h 54m
Waxing Gibbous, 94% of the Moon is Illuminated
Jan 24
Waxing Gibbous
Jan 26
Full
Feb 3
Last Quarter
Feb 10
New
Feb 17
First Quarter

Hourly Weather History & Observations

Time (CST) Temp. Windchill Dew Point Humidity Pressure Visibility Wind Dir Wind Speed Gust Speed Precip Events Conditions
12:55 AM 10.0 °F -4.5 °F -0.0 °F 64% 30.53 in 10.0 mi North 11.5 mph - N/A   Clear
1:55 AM 8.1 °F -6.2 °F -0.0 °F 70% 30.54 in 10.0 mi North 10.4 mph - N/A   Clear
2:55 AM 7.0 °F -8.3 °F -0.9 °F 70% 30.57 in 10.0 mi NNE 11.5 mph - N/A   Clear
3:55 AM 7.0 °F -4.5 °F -2.0 °F 67% 30.58 in 10.0 mi North 6.9 mph - N/A   Clear
4:55 AM 6.1 °F -5.6 °F -2.0 °F 69% 30.60 in 10.0 mi North 6.9 mph - N/A   Clear
5:55 AM 6.1 °F -7.8 °F -2.0 °F 69% 30.59 in 10.0 mi NNE 9.2 mph - N/A   Clear
6:55 AM 6.1 °F -5.6 °F -2.9 °F 67% 30.61 in 10.0 mi NNE 6.9 mph - N/A   Clear
7:55 AM 6.1 °F -4.3 °F -2.0 °F 69% 30.62 in 10.0 mi NE 5.8 mph - N/A   Clear
8:55 AM 8.1 °F -7.7 °F -0.9 °F 67% 30.64 in 10.0 mi NE 12.7 mph - N/A   Clear
9:55 AM 10.9 °F -3.4 °F -0.0 °F 61% 30.64 in 10.0 mi ENE 11.5 mph - N/A   Clear
10:55 AM 14.0 °F 0.5 °F -0.0 °F 54% 30.62 in 10.0 mi ENE 11.5 mph - N/A   Clear
11:55 AM 16.0 °F 2.3 °F -2.0 °F 45% 30.57 in 10.0 mi East 12.7 mph - N/A   Clear
12:55 PM 18.0 °F 5.4 °F -0.0 °F 45% 30.53 in 10.0 mi ESE 11.5 mph - N/A   Clear
1:55 PM 19.0 °F 5.6 °F -0.0 °F 43% 30.50 in 10.0 mi ESE 13.8 mph - N/A   Clear
2:55 PM 19.9 °F 7.3 °F -0.0 °F 42% 30.47 in 10.0 mi ESE 12.7 mph - N/A   Clear
3:55 PM 19.9 °F 7.3 °F -0.0 °F 42% 30.44 in 10.0 mi SE 12.7 mph 18.4 mph N/A   Clear
4:55 PM 19.9 °F 6.2 °F 1.9 °F 46% 30.40 in 10.0 mi ESE 15.0 mph 20.7 mph N/A   Clear
5:55 PM 19.9 °F 7.9 °F 3.9 °F 50% 30.40 in 10.0 mi ESE 11.5 mph - N/A   Clear
6:55 PM 19.9 °F 8.6 °F 3.9 °F 50% 30.38 in 10.0 mi ESE 10.4 mph - N/A   Clear
7:55 PM 19.9 °F 5.2 °F 5.0 °F 52% 30.32 in 10.0 mi ESE 17.3 mph - N/A   Clear
8:55 PM 21.0 °F 8.6 °F 6.1 °F 53% 30.34 in 10.0 mi SE 12.7 mph - N/A   Overcast
9:55 PM 21.0 °F 9.3 °F 7.0 °F 55% 30.32 in 10.0 mi SE 11.5 mph - N/A   Overcast
10:23 PM 21.2 °F 10.9 °F 6.8 °F 54% 30.25 in 10.0 mi SE 9.2 mph - N/A   Overcast
10:55 PM 21.0 °F 9.9 °F 7.0 °F 55% 30.30 in 10.0 mi SE 10.4 mph - N/A   Overcast
11:55 PM 21.9 °F 12.5 °F 8.1 °F 55% 30.27 in 10.0 mi SE 8.1 mph - N/A   Overcast